Location: Pescara
(42.4765°N, 14.1734°E)
Time: 10:56:31
(UTC+02:00)

ISS - Visible Passes

Search period start: 24 July 2017 00:00
Search period end: 03 August 2017 00:00
Orbit: 400 x 408 km, 51.6° (Epoch: 24 July)

Date Brightness Start Highest point End Pass type
(mag) Time Alt. Az. Time Alt. Az. Time Alt. Az.
24 Jul -0.7 01:01:36 10° NW 01:03:45 16° N 01:05:55 10° NE visible
24 Jul -1.4 02:38:21 10° NW 02:41:04 24° NNE 02:43:47 10° ENE visible
24 Jul -4.0 04:14:33 10° WNW 04:17:48 74° SW 04:21:03 10° SE visible
24 Jul -2.7 22:30:59 10° WSW 22:34:07 46° NNW 22:37:17 10° NE visible
25 Jul -0.9 00:08:53 10° NW 00:11:11 18° N 00:13:30 10° NE visible
25 Jul -1.0 01:46:06 10° NW 01:48:33 19° NNE 01:50:59 10° ENE visible
25 Jul -3.4 03:22:16 10° NW 03:25:30 61° NNE 03:28:44 10° ESE visible
25 Jul -2.2 04:59:30 10° W 05:01:40 17° SW 05:03:50 10° S visible
25 Jul -3.8 21:38:31 10° WSW 21:41:46 80° NW 21:45:02 10° NE visible
25 Jul -1.1 23:16:04 10° WNW 23:18:38 21° NNW 23:21:12 10° NE visible
26 Jul -0.9 00:53:45 10° NW 00:55:58 17° N 00:56:44 16° NNE visible
26 Jul -1.6 22:23:16 10° W 22:26:07 27° NNW 22:28:58 10° NE visible
27 Jul -0.8 00:01:13 10° NW 00:03:22 16° N 00:05:20 11° NE visible
27 Jul -0.6 01:37:49 10° NW 01:37:56 11° NW 01:37:56 11° NW visible
27 Jul -2.3 21:30:34 10° W 21:33:38 39° NNW 21:36:44 10° NE visible
27 Jul -0.9 23:08:31 10° NW 23:10:45 17° N 23:13:00 10° NE visible
28 Jul -0.9 00:45:34 10° NW 00:46:57 17° NNW 00:46:57 17° NNW visible
28 Jul -1.1 22:15:41 10° WNW 22:18:09 19° NNW 22:20:37 10° NE visible
28 Jul -1.1 23:53:13 10° NW 23:55:30 17° N 23:56:05 17° NNE visible
29 Jul -1.4 21:22:50 10° WNW 21:25:34 24° NNW 21:28:20 10° NE visible
29 Jul -0.9 23:00:43 10° NW 23:02:52 16° N 23:05:01 10° NE visible
30 Jul -0.7 00:37:11 10° NW 00:37:53 14° NW 00:37:53 14° NW visible
30 Jul -0.9 22:08:01 10° NW 22:10:13 16° N 22:12:24 10° NE visible
30 Jul -1.3 23:44:55 10° NW 23:47:07 21° N 23:47:07 21° N visible
31 Jul -1.1 21:15:11 10° WNW 21:17:33 18° N 21:19:56 10° NE visible
31 Jul -1.3 22:52:33 10° NW 22:54:55 18° N 22:56:21 14° NE visible
01 Aug -0.6 00:28:44 10° NW 00:28:58 12° NW 00:28:58 12° NW visible
01 Aug -1.1 22:00:04 10° NW 22:02:14 16° N 22:04:25 10° NE visible
01 Aug -1.5 23:36:26 10° NW 23:38:14 24° NNW 23:38:14 24° NNW visible
02 Aug -1.1 21:07:24 10° NW 21:09:33 16° N 21:11:42 10° NE visible
02 Aug -1.9 22:44:08 10° NW 22:46:51 24° NNE 22:47:30 22° NE visible
